TimeCDT,TemperatureF,Dew PointF,Humidity,Sea Level PressureIn,VisibilityMPH,Wind Direction,Wind SpeedMPH,Gust SpeedMPH,PrecipitationIn,Events,Conditions,WindDirDegrees,DateUTC
12:15 AM,26.8,20.5,77,29.95,10.0,NW,11.5,-,N/A,,Clear,310,2013-04-19 05:15:00
12:35 AM,26.4,20.3,78,29.95,10.0,NW,11.5,-,N/A,,Clear,310,2013-04-19 05:35:00
12:55 AM,25.7,20.3,80,29.95,10.0,NW,11.5,-,N/A,,Clear,310,2013-04-19 05:55:00
1:15 AM,25.5,19.9,79,29.94,10.0,NW,12.7,-,N/A,,Clear,310,2013-04-19 06:15:00
1:35 AM,24.8,19.8,81,29.94,10.0,WNW,11.5,-,N/A,,Clear,300,2013-04-19 06:35:00
1:55 AM,24.6,19.6,81,29.93,10.0,WNW,11.5,-,N/A,,Clear,300,2013-04-19 06:55:00
2:15 AM,24.6,19.2,80,29.93,10.0,WNW,10.4,-,N/A,,Clear,300,2013-04-19 07:15:00
2:35 AM,24.1,18.7,80,29.92,10.0,NW,10.4,-,N/A,,Clear,310,2013-04-19 07:35:00
2:55 AM,24.3,19.0,80,29.92,10.0,NW,9.2,-,N/A,,Clear,310,2013-04-19 07:55:00
3:15 AM,23.9,18.5,80,29.92,10.0,WNW,10.4,-,N/A,,Clear,290,2013-04-19 08:15:00
3:35 AM,23.4,18.5,82,29.92,10.0,WNW,11.5,-,N/A,,Clear,290,2013-04-19 08:35:00
3:55 AM,23.9,18.5,80,29.91,10.0,WNW,12.7,-,N/A,,Clear,290,2013-04-19 08:55:00
4:15 AM,23.9,18.5,80,29.92,10.0,WNW,11.5,-,N/A,,Clear,290,2013-04-19 09:15:00
4:35 AM,23.9,18.7,80,29.91,10.0,WNW,11.5,-,N/A,,Clear,300,2013-04-19 09:35:00
4:55 AM,23.7,18.3,80,29.91,10.0,WNW,9.2,-,N/A,,Clear,290,2013-04-19 09:55:00
5:15 AM,22.1,17.4,82,29.92,10.0,WNW,9.2,-,N/A,,Clear,290,2013-04-19 10:15:00
5:55 AM,21.0,16.3,82,29.91,10.0,West,9.2,-,N/A,,Clear,280,2013-04-19 10:55:00
6:15 AM,21.2,16.3,82,29.92,10.0,West,9.2,-,N/A,,Clear,280,2013-04-19 11:15:00
6:35 AM,21.2,16.3,82,29.92,10.0,West,9.2,-,N/A,,Clear,280,2013-04-19 11:35:00
6:55 AM,22.6,17.1,79,29.92,10.0,West,10.4,-,N/A,,Clear,280,2013-04-19 11:55:00
7:15 AM,23.0,17.4,79,29.92,10.0,West,9.2,-,N/A,,Mostly Cloudy,280,2013-04-19 12:15:00
7:35 AM,23.7,18.0,79,29.93,10.0,West,11.5,-,N/A,,Mostly Cloudy,280,2013-04-19 12:35:00
7:55 AM,25.3,19.4,78,29.93,10.0,WNW,12.7,17.3,N/A,,Overcast,290,2013-04-19 12:55:00
8:15 AM,26.6,20.1,77,29.93,10.0,WNW,10.4,-,N/A,,Overcast,300,2013-04-19 13:15:00
8:35 AM,28.4,20.5,72,29.93,10.0,NW,11.5,-,N/A,,Mostly Cloudy,310,2013-04-19 13:35:00
8:55 AM,28.9,21.0,72,29.93,10.0,WNW,11.5,-,N/A,,Mostly Cloudy,300,2013-04-19 13:55:00
9:15 AM,29.3,21.6,73,29.93,10.0,WNW,11.5,-,N/A,,Overcast,300,2013-04-19 14:15:00
9:35 AM,30.2,21.2,69,29.93,10.0,WNW,11.5,-,N/A,,Overcast,290,2013-04-19 14:35:00
9:55 AM,31.1,22.1,69,29.95,10.0,WNW,11.5,-,N/A,,Mostly Cloudy,300,2013-04-19 14:55:00
10:15 AM,31.8,21.9,67,29.95,10.0,WNW,12.7,18.4,0.01,,Scattered Clouds,300,2013-04-19 15:15:00
10:35 AM,32.0,21.4,65,29.96,10.0,NW,12.7,17.3,0.01,,Mostly Cloudy,310,2013-04-19 15:35:00
10:55 AM,32.7,21.4,63,29.96,10.0,WNW,13.8,20.7,0.01,,Scattered Clouds,300,2013-04-19 15:55:00
11:15 AM,32.5,21.6,64,29.97,10.0,WNW,13.8,19.6,N/A,,Mostly Cloudy,300,2013-04-19 16:15:00
11:35 AM,33.8,22.1,62,29.97,10.0,WNW,15.0,-,N/A,,Scattered Clouds,300,2013-04-19 16:35:00
11:55 AM,34.7,21.4,58,29.98,10.0,NW,15.0,20.7,N/A,,Mostly Cloudy,320,2013-04-19 16:55:00
12:15 PM,34.5,20.7,57,29.98,10.0,NW,17.3,-,N/A,,Overcast,310,2013-04-19 17:15:00
12:35 PM,34.9,21.2,57,29.99,10.0,NW,16.1,23.0,N/A,,Mostly Cloudy,320,2013-04-19 17:35:00
12:55 PM,35.2,21.7,58,29.99,10.0,NW,17.3,25.3,N/A,,Scattered Clouds,320,2013-04-19 17:55:00
1:15 PM,35.4,21.9,58,30.00,10.0,NNW,18.4,24.2,N/A,,Clear,330,2013-04-19 18:15:00
1:35 PM,35.8,22.6,59,30.00,10.0,NW,15.0,-,N/A,,Clear,320,2013-04-19 18:35:00
1:55 PM,36.5,23.7,60,30.01,10.0,NW,20.7,29.9,N/A,,Scattered Clouds,320,2013-04-19 18:55:00
2:15 PM,36.9,24.3,60,30.01,10.0,NNW,17.3,23.0,N/A,,Clear,330,2013-04-19 19:15:00
2:35 PM,37.6,25.7,62,30.01,10.0,NW,18.4,23.0,N/A,,Scattered Clouds,320,2013-04-19 19:35:00
2:55 PM,37.8,24.6,59,30.01,10.0,NNW,18.4,24.2,N/A,,Scattered Clouds,330,2013-04-19 19:55:00
3:15 PM,37.8,22.6,54,30.01,10.0,NNW,17.3,21.9,N/A,,Scattered Clouds,330,2013-04-19 20:15:00
3:35 PM,39.2,25.5,58,30.01,10.0,NNW,18.4,25.3,N/A,,Scattered Clouds,340,2013-04-19 20:35:00
3:55 PM,39.2,25.5,58,30.00,10.0,NNW,17.3,-,N/A,,Scattered Clouds,330,2013-04-19 20:55:00
4:15 PM,40.3,26.4,58,30.00,10.0,NW,16.1,29.9,N/A,,Scattered Clouds,320,2013-04-19 21:15:00
4:35 PM,40.1,25.0,55,30.00,10.0,NNW,18.4,23.0,N/A,,Scattered Clouds,340,2013-04-19 21:35:00
4:55 PM,40.5,24.6,53,30.01,10.0,NNW,16.1,-,N/A,,Scattered Clouds,330,2013-04-19 21:55:00
5:15 PM,40.8,24.1,51,30.01,10.0,NNW,12.7,20.7,N/A,,Scattered Clouds,330,2013-04-19 22:15:00
5:35 PM,41.2,24.4,51,30.01,10.0,NNW,12.7,20.7,N/A,,Scattered Clouds,330,2013-04-19 22:35:00
5:55 PM,41.2,23.2,49,30.01,10.0,NNW,15.0,-,N/A,,Scattered Clouds,330,2013-04-19 22:55:00
6:15 PM,41.4,23.9,50,30.02,10.0,NNW,13.8,-,N/A,,Scattered Clouds,340,2013-04-19 23:15:00
6:35 PM,40.8,22.8,49,30.02,10.0,NNW,12.7,-,N/A,,Scattered Clouds,330,2013-04-19 23:35:00
6:55 PM,40.1,21.6,48,30.03,10.0,NW,12.7,17.3,N/A,,Clear,320,2013-04-19 23:55:00
7:15 PM,40.1,23.4,51,30.04,10.0,NNW,10.4,-,N/A,,Clear,340,2013-04-20 00:15:00
7:35 PM,38.7,22.6,53,30.04,10.0,North,8.1,-,N/A,,Scattered Clouds,350,2013-04-20 00:35:00
7:55 PM,38.1,23.5,56,30.04,10.0,North,6.9,-,N/A,,Mostly Cloudy,360,2013-04-20 00:55:00
8:15 PM,36.0,23.7,61,30.04,10.0,North,6.9,-,N/A,,Scattered Clouds,360,2013-04-20 01:15:00
8:35 PM,34.2,24.1,67,30.05,10.0,NNE,4.6,-,N/A,,Clear,20,2013-04-20 01:35:00
8:55 PM,33.3,24.1,69,30.05,10.0,NNE,5.8,-,N/A,,Clear,20,2013-04-20 01:55:00
9:15 PM,33.3,23.0,66,30.06,10.0,NNE,3.5,-,N/A,,Clear,30,2013-04-20 02:15:00
9:35 PM,32.0,22.6,68,30.07,10.0,NNE,6.9,-,N/A,,Clear,20,2013-04-20 02:35:00
9:55 PM,31.5,23.2,71,30.07,10.0,NNE,6.9,-,N/A,,Clear,30,2013-04-20 02:55:00
10:15 PM,31.8,22.3,68,30.07,10.0,NE,5.8,-,N/A,,Clear,40,2013-04-20 03:15:00
10:35 PM,31.1,22.8,71,30.08,10.0,NE,6.9,-,N/A,,Clear,40,2013-04-20 03:35:00
10:55 PM,30.7,23.0,73,30.08,10.0,NNE,5.8,-,N/A,,Clear,30,2013-04-20 03:55:00
11:15 PM,30.0,22.5,73,30.08,10.0,Calm,Calm,-,N/A,,Clear,0,2013-04-20 04:15:00
11:35 PM,29.5,22.5,75,30.08,10.0,NE,4.6,-,N/A,,Clear,40,2013-04-20 04:35:00
11:55 PM,30.0,21.7,71,30.08,10.0,NE,5.8,-,N/A,,Clear,40,2013-04-20 04:55:00